Home   Weather   Namsos   Past weeks

Flag for Norway Past Weather in Namsos, Norway — Yesterday and Last 2 Weeks

Now
43 °F

Scattered clouds.


Feels Like: 37 °F
Forecast: 29 / 43 °F
Wind: 10 mph from Northeast

Location: Namsos Lufthavn

Current Time: Apr 24, 2017 at 3:50:16 pm

Latest Report: Apr 24, 2017 at 3:20 pm


Visibility: N/A

Pressure: 29.65 "Hg

Humidity: 53%

Dew Point: 27 °F

Location of NamsosLocation

Past Weather in Namsos — Graph

°F

Namsos Temperature Yesterday

Maximum temperature yesterday: 37 °F (at 6:20 pm)
Minimum temperature yesterday: 34 °F (at 5:20 pm)
Average temperature yesterday: 35 °F

High & Low Weather Summary for the Past Weeks

 TemperatureHumidityPressure
High45 °F (Apr 9, 6:50 pm)100% (Apr 10, 5:50 am)30.48 "Hg (Apr 10, 5:50 am)
Low27 °F (Apr 18, 5:50 am)29% (Apr 17, 4:50 pm)29.33 "Hg (Apr 10, 10:20 am)
Average38 °F71%29.81 "Hg
* Reported Apr 9 4:20 pm — Apr 24 2:20 pm, Namsos, Weather by CustomWeather, © 2017

Note: Actual official high and low records may vary slightly from our data, if they occured in-between our weather recording intervals... More about our weather records

Advertising

Namsos Weather History for the Previous 24 Hours

Scroll right to see more
 ConditionsComfort  
Time TempWeatherWind HumidityBarometerVisibility
2:20 pm
Mon, Apr 24
39 °FScattered clouds.8 mph65%29.65 "HgN/A
1:50 pm39 °FScattered clouds.10 mph61%29.65 "HgN/A
1:20 pm41 °FScattered clouds.9 mph61%29.65 "HgN/A
12:50 pm43 °FSunny.7 mph61%29.65 "Hg10 mi
12:20 pm41 °FScattered clouds.6 mph61%29.65 "HgN/A
11:50 am39 °FScattered clouds.2 mph65%29.65 "HgN/A
11:20 am39 °FScattered clouds.5 mph65%29.65 "HgN/A
10:50 am39 °FPassing clouds.5 mph61%29.65 "HgN/A
10:20 am39 °FPassing clouds.3 mph65%29.65 "HgN/A
9:50 am37 °FPassing clouds.5 mph65%29.65 "HgN/A
9:20 am37 °FSunny.2 mph70%29.65 "Hg10 mi
8:50 am36 °FSunny.3 mph70%29.65 "Hg10 mi
7:50 am34 °FScattered clouds.7 mph75%29.65 "HgN/A
7:20 am34 °FPartly sunny.8 mph75%29.65 "HgN/A
6:50 am34 °FPartly sunny.7 mph75%29.65 "HgN/A
6:20 am34 °FBroken clouds.6 mph75%29.65 "HgN/A
5:50 am32 °FPartly sunny.3 mph80%29.65 "HgN/A
9:50 pm
Sun, Apr 23
36 °FScattered showers. Partly cloudy.12 mph81%29.68 "HgN/A
9:20 pm36 °FScattered showers. Partly cloudy.12 mph87%29.68 "HgN/A
8:50 pm36 °FSprinkles. Broken clouds.13 mph87%29.68 "HgN/A
8:20 pm36 °FSprinkles. Broken clouds.14 mph87%29.68 "HgN/A
7:50 pm36 °FSprinkles. Broken clouds.16 mph87%29.68 "HgN/A
7:20 pm36 °FSprinkles. Broken clouds.22 mph87%29.68 "HgN/A
6:50 pm36 °FSprinkles. Broken clouds.21 mph87%29.68 "HgN/A
6:20 pm37 °FSprinkles. Broken clouds.14 mph87%29.68 "HgN/A
5:50 pm34 °FSleet. Broken clouds.7 mph100%29.68 "HgN/A
5:20 pm34 °FSnow flurries. Broken clouds.12 mph87%29.68 "Hg2 mi
4:50 pm36 °FSnow flurries. Broken clouds.7 mph87%29.68 "HgN/A
4:20 pm36 °FSnow flurries. Broken clouds.17 mph93%29.68 "HgN/A
3:50 pm36 °FSnow flurries. Broken clouds.17 mph87%29.68 "Hg3 mi
Weather by CustomWeather, © 2017

See weather overviewHow to use our weather pages